Wind_Speed
15 11 11 13 14 15 15 15 15 15 15 14 13 12 11 10 11 11 11 10 9 9 11 10 11 11 11 11 12 11 12 11 11 11 12 10 11 12 13 12 13 16 16
16 17 14 14 15 15 15 14 14 14 14 13 12 12 12 11 11 10 10 10 10 10 9 9 10 10 10 9 10 10 10 11 9 8 9 9 9 11 11 11 11 14 14
23 23 20 18 16 15 14 14 14 14 13 13 12 12 11 11 9 8 9 10 10 10 10 10 9 9 9 9 8 8 9 8 7 5 6 9 10 10 11 10 10 12 13
19 22 22 23 22 17 15 14 14 13 12 12 11 11 11 10 10 9 7 7 8 8 9 9 9 9 9 8 6 5 6 7 8 4 5 6 6 6 8 8 9 10 11
19 20 20 20 20 19 19 18 16 16 15 14 13 11 10 9 9 9 8 6 7 7 7 7 7 7 7 7 6 4 4 6 6 7 3 1 3 3 4 6 6 7 9
17 18 19 19 19 19 19 18 17 17 16 15 14 13 11 10 9 9 9 8 7 7 8 7 6 5 5 5 4 4 2 4 4 3 3 1 3 4 5 6 7 6 8
17 17 17 17 18 19 19 18 17 16 16 16 16 13 10 9 9 9 8 9 9 9 8 8 7 6 5 4 4 3 2 3 3 3 2 1 4 7 8 7 7 7 8
17 17 16 16 17 18 18 17 16 15 15 15 17 18 14 9 9 9 11 12 12 12 12 11 10 9 8 7 7 6 5 6 5 5 6 5 3 7 10 9 7 7 8
18 19 17 16 17 18 17 16 16 15 15 14 14 17 16 14 10 8 8 8 9 11 12 12 12 10 11 10 10 9 8 8 7 7 7 8 6 5 11 10 9 8 9
21 22 21 18 16 18 17 15 14 16 15 15 15 15 16 15 15 14 10 9 9 10 12 11 10 12 11 11 11 12 11 10 11 10 9 9 8 5 9 11 10 9 9
25 25 23 21 18 17 18 18 18 17 16 16 17 17 16 17 15 15 13 13 12 11 10 10 11 11 11 11 12 13 13 14 12 13 12 10 10 10 9 12 11 10 10
27 26 24 23 22 18 19 19 20 20 22 23 23 22 22 19 17 15 14 13 14 13 13 13 13 9 8 12 13 12 14 16 15 14 15 14 12 14 12 11 13 12 12
24 26 25 24 24 23 23 22 23 25 24 25 25 26 24 23 22 21 19 20 20 18 18 16 15 15 13 11 12 13 13 14 16 16 15 17 16 17 16 16 13 15 15
27 27 26 24 24 25 24 25 24 25 26 26 25 24 24 25 25 25 25 24 23 22 21 20 19 17 16 14 12 13 12 14 14 16 18 16 16 16 19 18 18 16 16
26 26 27 26 25 25 25 25 24 25 26 26 25 25 26 26 26 24 23 23 24 24 23 23 22 21 20 18 16 15 14 15 15 16 18 20 19 19 20 20 21 20 20
21 23 24 25 24 25 26 26 25 23 23 24 25 25 25 25 25 24 24 25 25 25 24 24 24 24 22 22 21 19 17 16 17 17 18 17 21 21 22 23 23 21 20
20 21 24 25 23 23 24 24 24 24 23 25 26 26 26 26 26 26 25 25 26 25 25 24 24 25 24 24 24 23 22 20 20 19 19 19 18 21 22 23 23 23 21
18 20 20 22 23 23 22 22 23 23 24 24 26 26 26 27 27 26 25 25 26 26 26 26 27 28 27 28 29 27 26 25 24 24 21 19 18 19 22 25 27 25 23
16 17 19 20 22 22 22 21 22 22 23 22 25 26 26 27 26 27 26 27 27 28 27 27 27 25 28 29 30 31 30 28 26 26 25 23 21 20 21 23 25 26 26
15 16 18 20 23 23 23 22 22 24 24 24 26 27 26 28 28 28 28 28 28 28 29 29 29 28 26 22 30 31 26 30 31 30 29 28 28 26 25 24 24 26 28
14 16 18 20 21 24 27 30 29 30 26 26 27 28 27 29 29 28 28 28 28 29 28 27 26 28 27 23 24 22 30 32 22 19 20 24 26 28 28 29 29 28 28
11 13 14 18 20 23 23 23 23 24 24 23 28 28 28 29 28 27 28 29 28 29 29 27 25 25 19 18 14 17 5 8 11 12 11 12 9 13 17 18 23 27 29
9 12 14 17 19 19 21 22 24 25 28 26 32 32 30 29 28 27 28 27 28 27 26 27 24 18 19 21 12 7 4 3 14 14 14 20 17 14 15 19 22 20 24
8 9 12 15 17 19 20 23 23 23 24 27 29 29 31 30 29 29 28 28 28 28 26 25 20 22 18 18 19 9 14 16 3 6 9 25 32 26 26 27 25 22 19
6 9 12 14 17 19 21 21 21 23 23 26 27 28 29 30 30 31 30 29 27 27 28 27 26 24 20 20 18 18 17 18 20 11 11 15 21 21 22 23 24 24 23
4 8 12 17 19 20 21 22 22 24 26 26 29 29 27 27 30 32 31 32 30 29 27 27 27 27 25 24 23 22 21 15 12 12 6 14 20 29 26 29 30 26 27
Wind_Direction
33 52 60 67 67 64 67 68 70 72 73 74 74 66 62 60 60 67 69 66 66 66 64 55 51 53 57 57 61 67 74 83 87 83 85 85 99 110 114 120 123 119 111
48 49 58 61 62 62 61 63 62 63 64 65 61 58 57 57 58 59 58 56 51 49 49 52 54 55 62 78 72 69 75 73 81 86 82 88 94 113 119 124 126 119 115
35 57 53 51 54 57 57 59 58 58 60 61 63 58 56 55 56 57 55 50 45 40 41 42 45 51 62 75 84 82 78 57 45 67 99 90 106 119 123 128 129 120 115
54 58 55 56 50 52 54 56 55 52 52 53 54 55 46 47 44 48 53 44 39 36 33 35 35 40 49 59 71 79 85 48 39 64 95 107 117 117 120 130 130 120 124
60 66 61 60 53 53 51 48 50 50 47 43 39 39 41 40 33 28 23 23 23 24 27 24 29 29 37 45 50 61 73 46 65 76 78 128 131 140 144 148 138 149 147
56 64 66 61 55 56 56 55 50 47 47 45 39 33 30 28 26 22 22 14 9 5 3 5 4 10 9 21 37 38 36 25 40 88 72 71 247 207 176 179 177 168 158
53 62 66 66 59 54 59 58 55 53 52 48 41 37 34 34 30 21 15 9 -0 352 346 341 337 334 331 331 325 337 307 298 318 321 293 331 261 225 199 192 182 180 182
50 58 63 63 58 58 56 60 58 60 58 59 53 47 43 40 39 32 17 10 6 353 344 332 325 317 309 309 309 303 293 296 278 287 277 283 283 237 206 193 192 192 193
55 57 57 59 60 64 63 62 65 64 64 64 57 56 55 59 52 27 13 6 356 351 344 331 325 319 312 304 300 303 296 284 274 282 269 278 275 263 211 198 196 207 210
54 52 52 56 60 64 60 63 61 59 57 54 48 44 45 49 52 47 39 23 -0 352 347 341 330 323 313 307 303 297 297 289 276 265 261 274 272 259 233 212 211 207 201
48 46 46 49 53 58 56 59 57 54 49 46 40 36 35 34 34 36 41 39 36 29 14 0 334 321 317 313 307 298 293 291 287 273 260 253 265 262 251 227 226 216 212
43 44 47 50 50 54 55 52 51 46 43 38 34 30 28 25 24 22 24 24 25 20 18 16 12 354 323 319 319 309 298 295 285 283 273 253 261 255 246 247 238 234 229
50 51 50 55 55 56 55 51 49 44 40 36 31 26 23 23 21 17 12 10 8 6 8 5 2 5 -0 334 319 310 306 298 293 286 283 262 264 250 240 242 247 241 240
58 56 56 57 59 57 56 53 49 45 40 37 33 28 24 22 21 19 16 10 7 4 357 357 353 350 350 347 336 326 318 311 300 288 279 266 260 251 246 246 252 253 251
64 62 60 61 61 60 58 56 53 49 44 39 36 32 26 23 20 15 12 8 6 3 359 352 345 339 338 335 333 331 320 307 305 297 290 266 263 254 250 254 258 257 254
68 63 60 59 60 59 56 53 49 46 41 37 34 30 27 22 18 13 9 5 1 360 355 351 347 340 331 326 321 320 319 310 304 297 292 287 261 253 251 250 256 261 260
63 60 57 54 53 52 49 45 42 37 32 29 25 21 19 16 12 9 5 2 358 355 351 346 340 337 331 327 319 311 309 303 301 302 293 285 276 259 251 251 254 258 259
67 61 56 51 47 45 43 40 35 30 26 22 17 13 11 8 5 1 357 354 350 347 347 345 344 338 332 330 323 315 306 299 296 295 292 288 277 269 258 253 252 256 256
66 58 52 45 39 35 33 31 28 24 20 14 10 7 3 0 358 355 353 349 346 344 344 343 337 339 333 329 321 313 308 303 292 286 283 282 279 274 271 263 256 252 253
64 55 47 38 31 25 20 18 13 14 11 7 4 1 357 354 352 349 346 345 343 340 339 340 337 332 331 329 319 312 303 295 292 285 279 277 276 275 274 273 269 263 253
61 49 41 32 24 18 15 10 4 0 359 359 355 354 353 350 348 345 342 340 340 337 335 336 335 334 335 334 333 323 310 303 288 279 280 277 275 273 273 274 272 268 265
62 48 38 29 20 17 13 9 1 353 348 349 346 347 347 345 343 341 338 337 335 332 330 332 333 332 325 331 322 307 313 316 288 270 280 283 297 299 289 285 280 272 265
57 39 28 20 14 10 4 357 353 350 344 343 343 341 341 340 338 336 333 331 329 326 323 323 323 325 319 319 319 304 313 303 342 293 294 297 304 298 289 299 307 297 272
51 28 19 12 8 2 357 355 354 350 343 335 334 332 333 335 333 331 327 326 322 320 316 315 311 308 307 302 313 285 270 292 299 314 306 301 298 298 299 295 295 296 296
45 20 7 360 357 355 352 350 345 338 334 328 328 327 328 329 327 326 324 320 314 311 308 304 304 301 294 289 286 290 288 278 273 261 288 295 303 296 298 294 292 292 293
30 5 -0 351 352 349 345 343 340 334 332 327 326 323 318 314 316 320 320 316 311 303 298 297 295 292 287 284 279 274 274 268 276 282 283 292 293 294 295 290 289 291 290
Height
846 843 840 839 837 837 836 836 835 835 834 835 834 835 834 833 831 831 830 829 829 828 827 826 825 824 823 823 823 823 822 821 819 820 819 819 819 818 819 819 820 820 820
849 846 844 842 841 839 839 838 838 837 837 837 837 837 836 835 835 834 833 832 832 831 830 828 827 826 825 825 825 825 824 824 823 822 821 821 821 821 821 821 822 821 822
851 846 845 845 843 843 841 840 841 840 840 840 840 839 839 837 837 836 836 835 834 833 832 831 830 828 827 827 826 826 826 826 825 825 824 824 823 822 823 823 823 823 824
853 850 847 846 845 845 844 843 843 842 842 842 842 842 841 840 839 837 837 836 835 835 834 833 832 831 830 829 828 828 828 828 827 826 826 826 825 824 824 824 824 824 825
855 852 849 849 848 847 846 846 845 844 844 844 843 843 842 841 840 839 838 837 837 836 835 835 834 833 832 831 831 830 829 829 828 828 828 828 827 827 826 826 826 826 826
857 853 852 852 851 850 849 848 847 847 846 845 845 844 843 843 842 841 840 839 839 838 837 836 835 834 834 833 832 831 831 830 830 829 829 828 828 827 827 827 827 827 827
859 857 854 854 853 852 851 849 848 848 847 846 845 844 843 843 842 842 841 840 840 839 838 837 836 835 834 833 833 832 831 831 831 830 829 828 828 828 827 827 828 828 828
863 859 857 857 855 853 852 850 850 849 848 848 847 845 844 843 843 842 842 841 840 840 839 838 837 836 834 833 832 832 831 831 830 830 829 828 827 827 827 827 827 828 828
864 860 859 859 858 856 855 854 852 851 850 850 849 847 845 843 842 842 842 840 840 839 838 837 837 836 834 833 833 832 830 830 829 829 828 828 827 826 826 826 827 827 828
865 864 862 861 860 858 857 856 855 854 853 852 851 850 848 846 844 843 841 840 840 839 838 837 835 834 834 833 832 831 830 829 828 827 827 827 826 826 825 825 825 826 826
867 867 865 863 863 861 860 859 858 856 855 854 853 851 849 848 846 845 844 842 840 838 837 835 835 834 832 832 831 829 828 828 827 826 826 826 825 825 825 824 825 825 825
873 871 870 868 867 865 864 862 861 860 859 857 856 854 852 851 849 847 845 842 840 839 837 835 833 832 832 831 829 828 827 826 825 824 824 824 823 823 824 823 823 824 824
880 876 874 872 871 868 866 865 864 863 861 860 858 856 855 853 851 848 846 843 841 839 837 835 834 832 831 830 828 827 825 824 823 822 822 821 821 820 821 821 822 822 822
881 880 878 876 874 872 871 869 868 865 864 862 861 859 856 854 852 851 849 847 844 841 839 837 834 832 831 829 828 826 824 822 820 819 819 818 818 818 818 818 818 818 818
884 884 882 880 877 876 874 872 871 870 868 867 865 863 860 857 855 853 850 848 846 843 840 837 835 832 830 827 826 824 822 820 818 817 815 815 815 815 815 816 815 815 815
888 887 885 883 881 879 876 875 873 871 870 868 865 863 861 859 856 854 851 849 847 844 841 839 835 832 829 826 824 822 819 817 816 814 812 811 810 810 811 812 812 812 812
891 890 887 886 884 882 880 878 876 875 873 870 868 866 864 860 857 855 852 849 847 844 841 838 835 831 827 824 821 819 816 814 812 811 809 807 806 806 806 807 807 807 808
893 891 890 889 887 885 883 881 879 878 875 873 870 868 865 862 860 856 852 850 846 843 840 837 834 830 827 823 818 815 813 810 808 807 806 804 803 801 801 801 802 802 803
894 893 891 889 887 886 885 883 881 879 876 874 872 869 866 863 860 857 854 851 847 843 840 837 833 830 826 821 817 812 809 806 803 801 800 799 799 798 797 796 796 796 798
896 895 893 891 889 886 884 882 880 878 877 875 873 871 867 864 861 857 854 851 847 843 840 837 833 830 827 822 815 808 804 801 798 795 794 794 794 794 793 792 791 791 791
896 895 893 891 889 886 883 880 878 877 876 874 872 870 867 864 861 858 854 850 847 845 840 838 834 829 825 823 814 804 796 793 790 788 788 787 786 787 787 786 786 785 785
896 895 894 892 891 889 886 884 882 879 875 872 870 868 865 862 860 857 854 850 848 843 840 837 834 829 827 825 824 816 799 788 785 783 782 782 781 781 781 781 780 779 780
897 896 895 894 892 890 888 885 881 878 874 870 867 865 863 861 858 856 853 849 846 844 839 837 833 831 826 824 825 826 813 798 793 781 779 778 776 776 776 776 775 774 774
898 898 896 895 893 891 888 884 882 880 877 873 869 865 862 858 854 853 850 847 844 841 838 834 833 829 827 822 821 819 817 815 807 790 779 774 773 773 772 770 771 770 770
898 897 896 894 892 890 888 885 883 880 877 872 868 863 859 856 853 849 846 844 840 838 834 832 828 826 823 821 818 816 813 810 807 801 783 776 773 770 768 767 765 765 765
897 896 895 893 891 890 888 885 882 878 874 870 865 861 857 853 849 845 842 839 835 833 830 826 823 820 817 815 813 811 808 805 801 798 788 781 776 767 766 762 762 761 761